Terminal Aerodrome Forecast
Issued by NWS Norman, OK

Home | Current Version | Previous Version | Text Only | Print | Product List | Glossary On
Versions: 1 2 3 4 5 6 7 8 9 10 11 12 13 14 15 16 17 18 19 20 21 22 23 24 25 26 27 28 29 30 31 32 33 34
000
FTUS44 KOUN 021122
TAFSPS
TAF
KSPS 021122Z 0212/0312 02007KT 5SM BR OVC022
     FM022100 15005KT P6SM BKN015
     FM030400 16008KT P6SM BKN008
     FM030900 17011KT 1 1/2SM BR OVC004=

USA.gov is the U.S. government's official web portal to all federal, state and local government web resources and services.